When you browse on this site, cookies collect data to enhance your experience and personalize the content and advertising you see.
Visit our Privacy Policy to learn more. By continuing to use the site, you agree to this use of cookies and data.
  • In Czech Republic
  • List of Countries
  • For 7 days
  • Water Temperature
  • Weather Map
  • Weather Widgets
  • user-avatar
    Login

    Hourly Weather Konstantyna

    Today, 7 December, Saturday

    Time Temperature Precipitation Wind Pressure Humidity
    00:00 +10°C° 0 mm 1 mps 713 mmHg 62%
    01:00 +10°C° 0 mm 1 mps 713 mmHg 62%
    02:00 +10°C° 0 mm 1 mps 712 mmHg 61%
    03:00 +10°C° 0 mm 1 mps 712 mmHg 61%
    04:00 +10°C° 0 mm 1 mps 712 mmHg 61%
    05:00 +10°C° 0 mm 1 mps 712 mmHg 60%
    06:00 +10°C° 0 mm 1 mps 712 mmHg 60%
    07:00 +11°C° 0 mm 1 mps 712 mmHg 55%
    08:00 +13°C° 0 mm 1 mps 713 mmHg 50%
    09:00 +15°C° 0 mm 1 mps 713 mmHg 45%
    10:00 +15°C° 0 mm 0 mps 713 mmHg 42%
    11:00 +16°C° 0 mm 0 mps 713 mmHg 38%
    12:00 +18°C° 0 mm 0 mps 713 mmHg 35%
    13:00 +19°C° 0 mm 1 mps 713 mmHg 37%
    14:00 +19°C° 0 mm 1 mps 712 mmHg 40%
    15:00 +19°C° 0 mm 1 mps 712 mmHg 42%
    16:00 +16°C° 0 mm 1 mps 712 mmHg 50%
    17:00 +14°C° 0 mm 1 mps 712 mmHg 58%
    18:00 +12°C° 0 mm 1 mps 712 mmHg 66%
    19:00 +12°C° 0 mm 1 mps 712 mmHg 69%
    20:00 +10°C° 0 mm 0 mps 712 mmHg 71%
    21:00 +10°C° 0 mm 0 mps 712 mmHg 73%
    22:00 +10°C° 0 mm 0 mps 712 mmHg 73%
    23:00 +9°C° 0 mm 0 mps 712 mmHg 74%

    Tomorrow, 8 December, Sunday

    Time Temperature Precipitation Wind Pressure Humidity
    00:00 +10°C° 0 mm 1 mps 712 mmHg 74%
    01:00 +9°C° 0 mm 0 mps 712 mmHg 75%
    02:00 +9°C° 0 mm 0 mps 712 mmHg 77%
    03:00 +8°C° 0 mm 0 mps 712 mmHg 78%
    04:00 +8°C° 0 mm 0 mps 712 mmHg 79%
    05:00 +8°C° 0 mm 0 mps 712 mmHg 80%
    06:00 +8°C° 0 mm 0 mps 712 mmHg 81%
    07:00 +9°C° 0 mm 0 mps 713 mmHg 76%
    08:00 +11°C° 0 mm 1 mps 713 mmHg 71%
    09:00 +13°C° 0 mm 1 mps 714 mmHg 66%
    10:00 +14°C° 0 mm 1 mps 714 mmHg 63%
    11:00 +15°C° 0 mm 2 mps 714 mmHg 60%
    12:00 +15°C° 0 mm 2 mps 713 mmHg 57%
    13:00 +15°C° 0 mm 2 mps 713 mmHg 59%
    14:00 +14°C° 0 mm 3 mps 713 mmHg 61%
    15:00 +14°C° 0 mm 3 mps 713 mmHg 63%
    16:00 +14°C° 0 mm 2 mps 713 mmHg 72%
    17:00 +12°C° 0 mm 2 mps 713 mmHg 80%
    18:00 +11°C° 0 mm 1 mps 713 mmHg 89%
    19:00 +11°C° 0 mm 1 mps 713 mmHg 91%
    20:00 +10°C° 0 mm 1 mps 713 mmHg 93%
    21:00 +10°C° 0 mm 1 mps 713 mmHg 95%
    22:00 +10°C° 0 mm 1 mps 713 mmHg 94%
    23:00 +9°C° 0 mm 1 mps 713 mmHg 94%

    Day after tomorrow, 9 December, Monday

    Time Temperature Precipitation Wind Pressure Humidity
    00:00 +9°C° 0 mm 1 mps 713 mmHg 94%
    01:00 +9°C° 0 mm 1 mps 713 mmHg 94%
    02:00 +9°C° 0 mm 1 mps 712 mmHg 94%
    03:00 +8°C° 0 mm 1 mps 712 mmHg 95%
    04:00 +8°C° 0 mm 1 mps 712 mmHg 94%
    05:00 +8°C° 0 mm 1 mps 712 mmHg 94%
    06:00 +8°C° 0 mm 1 mps 712 mmHg 94%
    07:00 +8°C° 0 mm 2 mps 713 mmHg 87%
    08:00 +9°C° 0 mm 2 mps 713 mmHg 80%
    09:00 +12°C° 0 mm 2 mps 714 mmHg 72%
    10:00 +12°C° 0 mm 3 mps 713 mmHg 67%
    11:00 +13°C° 0 mm 4 mps 713 mmHg 62%
    12:00 +14°C° 0 mm 4 mps 713 mmHg 58%
    13:00 +13°C° 0 mm 5 mps 713 mmHg 59%
    14:00 +13°C° 0 mm 6 mps 713 mmHg 61%
    15:00 +12°C° 0 mm 7 mps 712 mmHg 63%
    16:00 +11°C° 0 mm 6 mps 712 mmHg 68%
    17:00 +9°C° 0 mm 5 mps 712 mmHg 74%
    18:00 +8°C° 0 mm 4 mps 712 mmHg 80%
    19:00 +8°C° 0.1 mm 5 mps 713 mmHg 80%
    20:00 +8°C° 0.1 mm 5 mps 713 mmHg 81%
    21:00 +8°C° 0.1 mm 6 mps 713 mmHg 81%
    22:00 +8°C° 0.1 mm 6 mps 713 mmHg 83%
    23:00 +7°C° 0.1 mm 5 mps 713 mmHg 84%

    10 December, Tuesday

    Time Temperature Precipitation Wind Pressure Humidity
    00:00 +7°C° 0.1 mm 5 mps 713 mmHg 86%
    01:00 +7°C° 0.1 mm 5 mps 713 mmHg 87%
    02:00 +7°C° 0.1 mm 4 mps 713 mmHg 89%
    03:00 +7°C° 0.1 mm 4 mps 713 mmHg 91%
    04:00 +7°C° 0.1 mm 4 mps 713 mmHg 91%
    05:00 +7°C° 0.1 mm 4 mps 713 mmHg 91%
    06:00 +7°C° 0.1 mm 4 mps 713 mmHg 91%
    07:00 +7°C° 0.1 mm 5 mps 713 mmHg 87%
    08:00 +8°C° 0.1 mm 5 mps 713 mmHg 83%
    09:00 +9°C° 0.1 mm 6 mps 713 mmHg 79%
    10:00 +9°C° 0.1 mm 7 mps 713 mmHg 78%
    11:00 +9°C° 0.1 mm 8 mps 713 mmHg 76%
    12:00 +8°C° 0.1 mm 9 mps 713 mmHg 74%
    13:00 +8°C° 0.1 mm 9 mps 712 mmHg 76%
    14:00 +8°C° 0.1 mm 9 mps 712 mmHg 78%
    15:00 +7°C° 0.1 mm 8 mps 712 mmHg 80%
    16:00 +7°C° 0.2 mm 8 mps 712 mmHg 82%
    17:00 +8°C° 0.2 mm 7 mps 712 mmHg 84%
    18:00 +7°C° 0.2 mm 6 mps 712 mmHg 86%
    19:00 +7°C° 0.1 mm 6 mps 712 mmHg 87%
    20:00 +6°C° 0.1 mm 5 mps 713 mmHg 87%
    21:00 +6°C° 0.1 mm 5 mps 713 mmHg 87%
    22:00 +6°C° 0 mm 4 mps 713 mmHg 87%
    23:00 +7°C° 0 mm 3 mps 713 mmHg 88%

    11 December, Wednesday

    Time Temperature Precipitation Wind Pressure Humidity
    00:00 +7°C° 0 mm 2 mps 713 mmHg 88%
    01:00 +7°C° 0 mm 2 mps 713 mmHg 88%
    02:00 +7°C° 0 mm 2 mps 712 mmHg 88%
    03:00 +7°C° 0 mm 2 mps 712 mmHg 88%
    04:00 +6°C° 0 mm 2 mps 712 mmHg 89%
    05:00 +5°C° 0 mm 2 mps 712 mmHg 89%
    06:00 +6°C° 0 mm 1 mps 712 mmHg 90%
    07:00 +6°C° 0 mm 2 mps 712 mmHg 84%
    08:00 +7°C° 0 mm 2 mps 712 mmHg 78%
    09:00 +8°C° 0 mm 2 mps 713 mmHg 72%
    10:00 +10°C° 0 mm 2 mps 712 mmHg 64%
    11:00 +12°C° 0 mm 2 mps 712 mmHg 55%
    12:00 +13°C° 0 mm 2 mps 711 mmHg 47%
    13:00 +14°C° 0 mm 2 mps 711 mmHg 46%
    14:00 +14°C° 0 mm 2 mps 711 mmHg 45%
    15:00 +14°C° 0 mm 2 mps 711 mmHg 44%
    16:00 +13°C° 0 mm 1 mps 710 mmHg 49%
    17:00 +11°C° 0 mm 1 mps 710 mmHg 54%
    18:00 +8°C° 0 mm 0 mps 710 mmHg 59%
    19:00 +8°C° 0 mm 0 mps 710 mmHg 58%
    20:00 +9°C° 0 mm 1 mps 710 mmHg 58%
    21:00 +9°C° 0 mm 1 mps 710 mmHg 57%
    22:00 +9°C° 0 mm 1 mps 710 mmHg 59%
    23:00 +9°C° 0 mm 1 mps 710 mmHg 60%

    12 December, Thursday

    Time Temperature Precipitation Wind Pressure Humidity
    00:00 +9°C° 0 mm 1 mps 710 mmHg 62%
    01:00 +8°C° 0 mm 1 mps 710 mmHg 67%
    02:00 +8°C° 0 mm 1 mps 710 mmHg 72%
    03:00 +8°C° 0 mm 1 mps 710 mmHg 76%
    04:00 +8°C° 0.2 mm 1 mps 711 mmHg 79%
    05:00 +8°C° 0.2 mm 1 mps 711 mmHg 81%
    06:00 +9°C° 0.2 mm 1 mps 711 mmHg 83%
    07:00 +9°C° 0.1 mm 1 mps 712 mmHg 83%
    08:00 +9°C° 0.1 mm 1 mps 713 mmHg 83%
    09:00 +10°C° 0.1 mm 1 mps 713 mmHg 82%
    10:00 +11°C° 0.1 mm 1 mps 713 mmHg 76%
    11:00 +10°C° 0.1 mm 2 mps 713 mmHg 71%
    12:00 +12°C° 0.1 mm 2 mps 713 mmHg 65%
    13:00 +12°C° 0 mm 2 mps 713 mmHg 64%
    14:00 +12°C° 0 mm 2 mps 712 mmHg 62%
    15:00 +12°C° 0 mm 2 mps 712 mmHg 61%
    16:00 +10°C° 0 mm 2 mps 712 mmHg 67%
    17:00 +10°C° 0 mm 1 mps 712 mmHg 72%
    18:00 +8°C° 0 mm 0 mps 712 mmHg 78%
    19:00 +8°C° 0 mm 0 mps 712 mmHg 79%
    20:00 +8°C° 0 mm 1 mps 712 mmHg 80%
    21:00 +8°C° 0 mm 1 mps 712 mmHg 81%
    22:00 +8°C° 0 mm 1 mps 712 mmHg 82%
    23:00 +8°C° 0 mm 1 mps 712 mmHg 82%
    Show more